Time,TemperatureF,DewpointF,PressureIn,WindDirection,WindDirectionDegrees,WindSpeedMPH,WindSpeedGustMPH,Humidity,HourlyPrecipIn,Conditions,Clouds,dailyrainin,SoftwareType,DateUTC
2013-09-26 00:00:00,66.4,54.0,-100.00,West,265,0.0,0.0,66,0.00,,,0.00,,2013-09-26 05:00:00,
2013-09-26 00:05:00,66.4,54.0,-100.00,West,265,0.0,0.0,65,0.00,,,0.00,,2013-09-26 05:05:00,
2013-09-26 00:10:00,66.5,55.0,-100.00,West,265,0.0,0.0,68,0.00,,,0.00,,2013-09-26 05:10:00,
2013-09-26 00:15:00,66.5,56.0,-100.00,West,265,0.0,0.0,69,0.00,,,0.00,,2013-09-26 05:15:00,
2013-09-26 00:20:00,66.2,55.0,-100.00,West,265,0.0,0.0,69,0.00,,,0.00,,2013-09-26 05:20:00,
2013-09-26 00:25:00,66.3,54.0,-100.00,West,265,0.0,0.0,66,0.00,,,0.00,,2013-09-26 05:25:00,
2013-09-26 00:30:00,66.1,54.0,-100.00,West,265,0.0,0.0,67,0.00,,,0.00,,2013-09-26 05:30:00,
2013-09-26 00:35:00,64.9,53.0,-100.00,West,265,0.0,0.0,66,0.00,,,0.00,,2013-09-26 05:35:00,
2013-09-26 00:40:00,66.0,55.0,-100.00,West,265,0.0,0.0,68,0.00,,,0.00,,2013-09-26 05:40:00,
2013-09-26 00:45:00,66.1,56.0,-100.00,West,265,0.0,0.0,72,0.00,,,0.00,,2013-09-26 05:45:00,
2013-09-26 00:50:00,66.0,56.0,-100.00,West,265,0.0,0.0,72,0.00,,,0.00,,2013-09-26 05:50:00,
2013-09-26 00:55:00,64.9,56.0,-100.00,West,265,0.0,0.0,74,0.00,,,0.00,,2013-09-26 05:55:00,
2013-09-26 01:00:00,64.8,55.0,-100.00,West,265,0.0,0.0,71,0.00,,,0.00,,2013-09-26 06:00:00,
2013-09-26 01:05:00,66.0,56.0,-100.00,West,265,0.0,0.0,72,0.00,,,0.00,,2013-09-26 06:05:00,
2013-09-26 01:10:00,66.0,55.0,-100.00,West,265,0.0,0.0,70,0.00,,,0.00,,2013-09-26 06:10:00,
2013-09-26 01:15:00,64.8,54.0,-100.00,West,265,0.0,0.0,70,0.00,,,0.00,,2013-09-26 06:15:00,
2013-09-26 01:20:00,64.6,56.0,-100.00,West,265,0.0,0.0,76,0.00,,,0.00,,2013-09-26 06:20:00,
2013-09-26 01:25:00,64.7,54.0,-100.00,West,265,0.0,0.0,70,0.00,,,0.00,,2013-09-26 06:25:00,
2013-09-26 01:30:00,64.3,55.0,-100.00,West,265,0.0,0.0,74,0.00,,,0.00,,2013-09-26 06:30:00,
2013-09-26 01:35:00,64.5,56.0,-100.00,West,265,0.0,0.0,75,0.00,,,0.00,,2013-09-26 06:35:00,
2013-09-26 01:40:00,64.6,56.0,-100.00,West,265,0.0,0.0,75,0.00,,,0.00,,2013-09-26 06:40:00,
2013-09-26 01:45:00,64.5,56.0,-100.00,West,265,0.0,0.0,75,0.00,,,0.00,,2013-09-26 06:45:00,
2013-09-26 01:50:00,64.5,58.0,-100.00,West,265,0.0,0.0,80,0.00,,,0.00,,2013-09-26 06:50:00,
2013-09-26 01:55:00,64.3,57.0,-100.00,West,265,0.0,0.0,80,0.00,,,0.00,,2013-09-26 06:55:00,
2013-09-26 02:00:00,64.3,54.0,-100.00,West,265,0.0,0.0,70,0.00,,,0.00,,2013-09-26 07:00:00,
2013-09-26 02:05:00,64.0,54.0,-100.00,West,265,0.0,0.0,72,0.00,,,0.00,,2013-09-26 07:05:00,
2013-09-26 02:10:00,64.1,55.0,-100.00,West,265,0.0,0.0,73,0.00,,,0.00,,2013-09-26 07:10:00,
2013-09-26 02:15:00,64.3,55.0,-100.00,West,265,0.0,0.0,72,0.00,,,0.00,,2013-09-26 07:15:00,
2013-09-26 02:20:00,64.1,54.0,-100.00,West,265,0.0,0.0,72,0.00,,,0.00,,2013-09-26 07:20:00,
2013-09-26 02:25:00,64.2,54.0,-100.00,West,265,0.0,0.0,70,0.00,,,0.00,,2013-09-26 07:25:00,
2013-09-26 02:30:00,64.2,54.0,-100.00,West,265,0.0,0.0,71,0.00,,,0.00,,2013-09-26 07:30:00,
2013-09-26 02:35:00,64.2,54.0,-100.00,West,265,0.0,0.0,72,0.00,,,0.00,,2013-09-26 07:35:00,
2013-09-26 02:40:00,64.1,56.0,-100.00,West,265,0.0,0.0,75,0.00,,,0.00,,2013-09-26 07:40:00,
2013-09-26 02:45:00,64.1,53.0,-100.00,West,265,0.0,0.0,68,0.00,,,0.00,,2013-09-26 07:45:00,
2013-09-26 02:50:00,64.0,54.0,-100.00,West,265,0.0,0.0,72,0.00,,,0.00,,2013-09-26 07:50:00,
2013-09-26 02:55:00,64.0,55.0,-100.00,West,265,0.0,0.0,73,0.00,,,0.00,,2013-09-26 07:55:00,
2013-09-26 03:00:00,64.0,54.0,-100.00,West,265,0.0,0.0,72,0.00,,,0.00,,2013-09-26 08:00:00,
2013-09-26 03:05:00,62.9,54.0,-100.00,West,265,0.0,0.0,74,0.00,,,0.00,,2013-09-26 08:05:00,
2013-09-26 03:10:00,62.8,53.0,-100.00,West,265,0.0,0.0,71,0.00,,,0.00,,2013-09-26 08:10:00,
2013-09-26 03:15:00,62.8,53.0,-100.00,West,265,0.0,0.0,72,0.00,,,0.00,,2013-09-26 08:15:00,
2013-09-26 03:20:00,62.8,53.0,-100.00,West,265,0.0,0.0,71,0.00,,,0.00,,2013-09-26 08:20:00,
2013-09-26 03:25:00,62.8,50.0,-100.00,West,265,0.0,0.0,65,0.00,,,0.00,,2013-09-26 08:25:00,
2013-09-26 03:30:00,62.8,50.0,-100.00,West,265,0.0,0.0,64,0.00,,,0.00,,2013-09-26 08:30:00,
2013-09-26 03:35:00,62.6,49.0,-100.00,West,265,0.0,0.0,62,0.00,,,0.00,,2013-09-26 08:35:00,
2013-09-26 03:45:00,62.5,46.0,-100.00,West,265,0.0,0.0,55,0.00,,,0.00,,2013-09-26 08:45:00,
2013-09-26 03:50:00,62.6,48.0,-100.00,West,265,0.0,0.0,59,0.00,,,0.00,,2013-09-26 08:50:00,
2013-09-26 03:55:00,62.6,48.0,-100.00,West,265,0.0,0.0,59,0.00,,,0.00,,2013-09-26 08:55:00,
2013-09-26 04:00:00,62.5,47.0,-100.00,West,265,0.0,0.0,57,0.00,,,0.00,,2013-09-26 09:00:00,
2013-09-26 04:05:00,62.5,47.0,-100.00,West,265,0.0,0.0,58,0.00,,,0.00,,2013-09-26 09:05:00,
2013-09-26 04:10:00,62.5,48.0,-100.00,West,265,0.0,0.0,60,0.00,,,0.00,,2013-09-26 09:10:00,
2013-09-26 04:15:00,62.5,49.0,-100.00,West,265,0.0,0.0,62,0.00,,,0.00,,2013-09-26 09:15:00,
2013-09-26 04:20:00,62.4,51.0,-100.00,West,265,0.0,0.0,67,0.00,,,0.00,,2013-09-26 09:20:00,
2013-09-26 04:25:00,62.3,47.0,-100.00,West,265,0.0,0.0,59,0.00,,,0.00,,2013-09-26 09:25:00,
2013-09-26 04:30:00,62.3,49.0,-100.00,West,265,0.0,0.0,63,0.00,,,0.00,,2013-09-26 09:30:00,
2013-09-26 04:35:00,62.5,49.0,-100.00,West,265,0.0,0.0,63,0.00,,,0.00,,2013-09-26 09:35:00,
2013-09-26 04:40:00,62.5,48.0,-100.00,West,265,0.0,0.0,61,0.00,,,0.00,,2013-09-26 09:40:00,
2013-09-26 04:45:00,62.5,48.0,-100.00,West,265,0.0,0.0,61,0.00,,,0.00,,2013-09-26 09:45:00,
2013-09-26 04:50:00,62.5,46.0,-100.00,West,265,0.0,0.0,55,0.00,,,0.00,,2013-09-26 09:50:00,
2013-09-26 04:55:00,62.6,48.0,-100.00,West,265,0.0,0.0,59,0.00,,,0.00,,2013-09-26 09:55:00,
2013-09-26 05:00:00,62.6,49.0,-100.00,West,265,0.0,0.0,63,0.00,,,0.00,,2013-09-26 10:00:00,
2013-09-26 05:05:00,62.5,49.0,-100.00,West,265,0.0,0.0,63,0.00,,,0.00,,2013-09-26 10:05:00,
2013-09-26 05:10:00,62.6,49.0,-100.00,West,265,0.0,0.0,62,0.00,,,0.00,,2013-09-26 10:10:00,
2013-09-26 05:15:00,62.6,48.0,-100.00,West,265,0.0,0.0,60,0.00,,,0.00,,2013-09-26 10:15:00,
2013-09-26 05:20:00,62.6,48.0,-100.00,West,265,0.0,0.0,60,0.00,,,0.00,,2013-09-26 10:20:00,
2013-09-26 05:25:00,62.5,51.0,-100.00,West,265,0.0,0.0,67,0.00,,,0.00,,2013-09-26 10:25:00,
2013-09-26 05:30:00,62.5,50.0,-100.00,West,265,0.0,0.0,65,0.00,,,0.00,,2013-09-26 10:30:00,
2013-09-26 05:35:00,62.5,49.0,-100.00,West,265,0.0,0.0,63,0.00,,,0.00,,2013-09-26 10:35:00,
2013-09-26 05:40:00,62.5,50.0,-100.00,West,265,0.0,0.0,65,0.00,,,0.00,,2013-09-26 10:40:00,
2013-09-26 05:45:00,62.5,49.0,-100.00,West,265,0.0,0.0,62,0.00,,,0.00,,2013-09-26 10:45:00,
2013-09-26 05:50:00,62.3,50.0,-100.00,West,265,0.0,0.0,65,0.00,,,0.00,,2013-09-26 10:50:00,
2013-09-26 05:55:00,62.3,49.0,-100.00,West,265,0.0,0.0,64,0.00,,,0.00,,2013-09-26 10:55:00,
2013-09-26 06:00:00,62.3,50.0,-100.00,West,265,0.0,0.0,65,0.00,,,0.00,,2013-09-26 11:00:00,
2013-09-26 06:05:00,62.3,58.0,-100.00,West,265,0.0,0.0,87,0.00,,,0.00,,2013-09-26 11:05:00,
2013-09-26 06:10:00,62.2,51.0,-100.00,West,265,0.0,0.0,68,0.00,,,0.00,,2013-09-26 11:10:00,
2013-09-26 06:15:00,62.3,52.0,-100.00,West,265,0.0,0.0,70,0.00,,,0.00,,2013-09-26 11:15:00,
2013-09-26 06:20:00,62.2,49.0,-100.00,West,265,0.0,0.0,64,0.00,,,0.00,,2013-09-26 11:20:00,
2013-09-26 06:25:00,62.2,53.0,-100.00,West,265,0.0,0.0,73,0.00,,,0.00,,2013-09-26 11:25:00,
2013-09-26 06:30:00,62.2,50.0,-100.00,West,265,0.0,0.0,65,0.00,,,0.00,,2013-09-26 11:30:00,
2013-09-26 06:35:00,62.1,51.0,-100.00,West,265,0.0,0.0,68,0.00,,,0.00,,2013-09-26 11:35:00,
2013-09-26 06:40:00,62.0,54.0,-100.00,West,265,0.0,0.0,77,0.00,,,0.00,,2013-09-26 11:40:00,
2013-09-26 06:45:00,62.0,53.0,-100.00,West,265,0.0,0.0,73,0.00,,,0.00,,2013-09-26 11:45:00,
2013-09-26 06:50:00,62.0,53.0,-100.00,West,265,0.0,0.0,75,0.00,,,0.00,,2013-09-26 11:50:00,
2013-09-26 07:00:00,60.9,52.0,-100.00,West,265,0.0,0.0,75,0.00,,,0.00,,2013-09-26 12:00:00,
2013-09-26 07:10:00,60.8,51.0,-100.00,West,265,0.0,0.0,71,0.00,,,0.00,,2013-09-26 12:10:00,
2013-09-26 07:20:00,60.7,51.0,-100.00,West,265,0.0,0.0,71,0.00,,,0.00,,2013-09-26 12:20:00,
2013-09-26 07:25:00,60.6,51.0,-100.00,West,265,0.0,0.0,71,0.00,,,0.00,,2013-09-26 12:25:00,
2013-09-26 07:30:00,60.6,50.0,-100.00,West,265,0.0,0.0,70,0.00,,,0.00,,2013-09-26 12:30:00,
2013-09-26 07:35:00,60.6,51.0,-100.00,West,265,0.0,0.0,71,0.00,,,0.00,,2013-09-26 12:35:00,
2013-09-26 07:40:00,60.6,52.0,-100.00,West,265,0.0,0.0,74,0.00,,,0.00,,2013-09-26 12:40:00,
2013-09-26 07:45:00,60.6,50.0,-100.00,West,265,0.0,0.0,70,0.00,,,0.00,,2013-09-26 12:45:00,
2013-09-26 07:50:00,60.7,51.0,-100.00,West,265,0.0,0.0,73,0.00,,,0.00,,2013-09-26 12:50:00,
2013-09-26 07:55:00,60.9,50.0,-100.00,West,265,0.0,0.0,69,0.00,,,0.00,,2013-09-26 12:55:00,
2013-09-26 08:00:00,62.0,50.0,-100.00,West,265,0.0,0.0,66,0.00,,,0.00,,2013-09-26 13:00:00,
2013-09-26 08:05:00,62.2,61.0,-100.00,West,265,0.0,0.0,96,0.00,,,0.00,,2013-09-26 13:05:00,
2013-09-26 08:10:00,62.5,60.0,-100.00,West,265,0.0,0.0,94,0.00,,,0.00,,2013-09-26 13:10:00,
2013-09-26 08:15:00,62.8,61.0,-100.00,West,265,0.0,0.0,94,0.00,,,0.00,,2013-09-26 13:15:00,
2013-09-26 08:20:00,64.3,62.0,-100.00,West,265,0.0,0.0,94,0.00,,,0.00,,2013-09-26 13:20:00,
2013-09-26 08:25:00,64.7,62.0,-100.00,West,265,0.0,0.0,92,0.00,,,0.00,,2013-09-26 13:25:00,
2013-09-26 08:30:00,66.5,63.0,-100.00,West,265,0.0,0.0,89,0.00,,,0.00,,2013-09-26 13:30:00,
2013-09-26 08:35:00,69.5,65.0,-100.00,West,265,0.0,0.0,87,0.00,,,0.00,,2013-09-26 13:35:00,
2013-09-26 08:40:00,71.2,66.0,-100.00,West,265,0.0,0.0,84,0.00,,,0.00,,2013-09-26 13:40:00,
2013-09-26 08:45:00,71.5,66.0,-100.00,West,265,0.0,0.0,83,0.00,,,0.00,,2013-09-26 13:45:00,
2013-09-26 08:50:00,76.0,68.0,-100.00,West,265,0.0,0.0,78,0.00,,,0.00,,2013-09-26 13:50:00,
2013-09-26 08:55:00,73.8,65.0,-100.00,West,265,0.0,1.0,75,0.00,,,0.00,,2013-09-26 13:55:00,
2013-09-26 09:00:00,73.8,64.0,-100.00,West,265,0.0,1.0,73,0.00,,,0.00,,2013-09-26 14:00:00,
2013-09-26 09:05:00,75.1,65.0,-100.00,West,265,0.0,0.0,71,0.00,,,0.00,,2013-09-26 14:05:00,
2013-09-26 09:10:00,75.6,64.0,-100.00,West,265,0.0,0.0,69,0.00,,,0.00,,2013-09-26 14:10:00,
2013-09-26 09:15:00,76.0,63.0,-100.00,West,265,0.0,0.0,66,0.00,,,0.00,,2013-09-26 14:15:00,
2013-09-26 09:20:00,76.2,63.0,-100.00,West,265,0.0,0.0,65,0.00,,,0.00,,2013-09-26 14:20:00,
2013-09-26 09:25:00,76.6,62.0,-100.00,West,265,0.0,0.0,62,0.00,,,0.00,,2013-09-26 14:25:00,
2013-09-26 09:30:00,76.8,61.0,-100.00,West,265,0.0,0.0,60,0.00,,,0.00,,2013-09-26 14:30:00,
2013-09-26 09:35:00,78.1,63.0,-100.00,West,265,0.0,0.0,61,0.00,,,0.00,,2013-09-26 14:35:00,
2013-09-26 09:40:00,78.3,62.0,-100.00,West,265,0.0,0.0,59,0.00,,,0.00,,2013-09-26 14:40:00,
2013-09-26 09:45:00,78.6,62.0,-100.00,WNW,282,0.0,1.0,57,0.00,,,0.00,,2013-09-26 14:45:00,
2013-09-26 09:50:00,78.7,61.0,-100.00,WNW,294,0.0,1.0,55,0.00,,,0.00,,2013-09-26 14:50:00,
2013-09-26 09:55:00,78.9,61.0,-100.00,West,277,0.0,1.0,55,0.00,,,0.00,,2013-09-26 14:55:00,
2013-09-26 10:05:00,82.5,63.0,-100.00,NW,310,0.0,1.0,53,0.00,,,0.00,,2013-09-26 15:05:00,
2013-09-26 10:10:00,84.1,65.0,-100.00,West,271,0.0,1.0,53,0.00,,,0.00,,2013-09-26 15:10:00,
2013-09-26 10:15:00,82.3,62.0,-100.00,NW,319,0.0,1.0,51,0.00,,,0.00,,2013-09-26 15:15:00,
2013-09-26 10:25:00,82.4,61.0,-100.00,WNW,299,0.0,1.0,50,0.00,,,0.00,,2013-09-26 15:25:00,
2013-09-26 10:30:00,82.6,61.0,-100.00,NW,310,0.0,1.0,49,0.00,,,0.00,,2013-09-26 15:30:00,
2013-09-26 10:35:00,84.0,62.0,-100.00,NW,319,0.0,1.0,48,0.00,,,0.00,,2013-09-26 15:35:00,
2013-09-26 10:40:00,84.1,62.0,-100.00,WNW,299,0.0,1.0,48,0.00,,,0.00,,2013-09-26 15:40:00,
2013-09-26 10:45:00,84.3,61.0,-100.00,WNW,291,0.0,1.0,47,0.00,,,0.00,,2013-09-26 15:45:00,
2013-09-26 10:50:00,84.6,62.0,-100.00,WNW,293,0.0,1.0,47,0.00,,,0.00,,2013-09-26 15:50:00,
2013-09-26 10:55:00,84.8,61.0,-100.00,WNW,294,0.0,1.0,45,0.00,,,0.00,,2013-09-26 15:55:00,
2013-09-26 11:00:00,85.0,61.0,-100.00,West,265,0.0,1.0,46,0.00,,,0.00,,2013-09-26 16:00:00,
2013-09-26 11:05:00,85.3,61.0,-100.00,WNW,288,0.0,1.0,45,0.00,,,0.00,,2013-09-26 16:05:00,
2013-09-26 11:10:00,85.6,61.0,-100.00,WNW,288,0.0,1.0,45,0.00,,,0.00,,2013-09-26 16:10:00,
2013-09-26 11:15:00,85.5,60.0,-100.00,West,274,0.0,1.0,43,0.00,,,0.00,,2013-09-26 16:15:00,
2013-09-26 11:20:00,85.6,61.0,-100.00,West,271,0.0,1.0,44,0.00,,,0.00,,2013-09-26 16:20:00,
2013-09-26 11:25:00,85.9,60.0,-100.00,West,276,0.0,1.0,42,0.00,,,0.00,,2013-09-26 16:25:00,
2013-09-26 11:30:00,87.1,61.0,-100.00,West,268,0.0,1.0,43,0.00,,,0.00,,2013-09-26 16:30:00,
2013-09-26 11:35:00,87.3,62.0,-100.00,SW,220,0.0,1.0,43,0.00,,,0.00,,2013-09-26 16:35:00,
2013-09-26 11:40:00,87.2,60.0,-100.00,SW,220,0.0,0.0,41,0.00,,,0.00,,2013-09-26 16:40:00,
2013-09-26 11:45:00,87.5,60.0,-100.00,SW,220,0.0,0.0,41,0.00,,,0.00,,2013-09-26 16:45:00,
2013-09-26 11:50:00,87.6,60.0,-100.00,SW,220,0.0,0.0,40,0.00,,,0.00,,2013-09-26 16:50:00,
2013-09-26 11:55:00,87.4,59.0,-100.00,SW,220,0.0,0.0,39,0.00,,,0.00,,2013-09-26 16:55:00,
2013-09-26 12:00:00,87.5,58.0,-100.00,SW,220,0.0,0.0,38,0.00,,,0.00,,2013-09-26 17:00:00,
2013-09-26 12:05:00,87.9,59.0,-100.00,SW,220,0.0,0.0,39,0.00,,,0.00,,2013-09-26 17:05:00,
2013-09-26 12:10:00,87.7,58.0,-100.00,SW,220,0.0,0.0,37,0.00,,,0.00,,2013-09-26 17:10:00,
2013-09-26 12:15:00,87.5,57.0,-100.00,SW,220,0.0,0.0,37,0.00,,,0.00,,2013-09-26 17:15:00,
2013-09-26 12:20:00,87.3,57.0,-100.00,SW,220,0.0,0.0,36,0.00,,,0.00,,2013-09-26 17:20:00,
2013-09-26 12:25:00,87.4,57.0,-100.00,SW,220,0.0,0.0,36,0.00,,,0.00,,2013-09-26 17:25:00,
2013-09-26 12:35:00,87.4,-24.0,-100.00,SW,220,0.0,0.0,1,0.00,,,0.00,,2013-09-26 17:35:00,
2013-09-26 12:40:00,89.4,-23.0,-100.00,SW,220,0.0,0.0,1,0.00,,,0.00,,2013-09-26 17:40:00,
2013-09-26 12:45:00,89.3,-23.0,-100.00,SW,220,0.0,0.0,1,0.00,,,0.00,,2013-09-26 17:45:00,
2013-09-26 12:50:00,89.0,-23.0,-100.00,SW,220,0.0,0.0,1,0.00,,,0.00,,2013-09-26 17:50:00,
2013-09-26 12:55:00,89.0,-23.0,-100.00,SW,220,0.0,0.0,1,0.00,,,0.00,,2013-09-26 17:55:00,
2013-09-26 13:00:00,89.5,-23.0,-100.00,SW,220,0.0,0.0,1,0.00,,,0.00,,2013-09-26 18:00:00,
2013-09-26 13:05:00,89.0,-99.9,-100.00,SW,220,0.0,0.0,0,0.00,,,0.00,,2013-09-26 18:05:00,
2013-09-26 13:10:00,89.1,-99.9,-100.00,SW,220,0.0,0.0,0,0.00,,,0.00,,2013-09-26 18:10:00,
2013-09-26 13:15:00,87.6,-99.9,-100.00,SW,220,0.0,0.0,0,0.00,,,0.00,,2013-09-26 18:15:00,
2013-09-26 13:20:00,87.9,-99.9,-100.00,SW,220,0.0,0.0,0,0.00,,,0.00,,2013-09-26 18:20:00,
2013-09-26 13:25:00,89.0,-99.9,-100.00,SW,220,0.0,0.0,0,0.00,,,0.00,,2013-09-26 18:25:00,
2013-09-26 13:35:00,89.6,-99.9,-100.00,West,265,0.0,1.0,0,0.00,,,0.00,,2013-09-26 18:35:00,
2013-09-26 13:40:00,89.0,-99.9,-100.00,West,268,0.0,1.0,0,0.00,,,0.00,,2013-09-26 18:40:00,
2013-09-26 13:45:00,87.9,-99.9,-100.00,West,265,0.0,1.0,0,0.00,,,0.00,,2013-09-26 18:45:00,
2013-09-26 13:50:00,89.5,-99.9,-100.00,West,265,0.0,1.0,0,0.00,,,0.00,,2013-09-26 18:50:00,
2013-09-26 13:55:00,87.6,-99.9,-100.00,West,265,0.0,1.0,0,0.00,,,0.00,,2013-09-26 18:55:00,
2013-09-26 14:00:00,87.9,-99.9,-100.00,West,277,0.0,1.0,0,0.00,,,0.00,,2013-09-26 19:00:00,
2013-09-26 14:05:00,87.6,-99.9,-100.00,West,274,0.0,1.0,0,0.00,,,0.00,,2013-09-26 19:05:00,
2013-09-26 14:15:00,89.8,-99.9,-100.00,West,265,0.0,1.0,0,0.00,,,0.00,,2013-09-26 19:15:00,
2013-09-26 14:20:00,89.4,-99.9,-100.00,West,265,0.0,1.0,0,0.00,,,0.00,,2013-09-26 19:20:00,
2013-09-26 14:30:00,89.0,-99.9,-100.00,West,271,0.0,1.0,0,0.00,,,0.00,,2013-09-26 19:30:00,
2013-09-26 14:35:00,89.3,-99.9,-100.00,West,268,0.0,1.0,0,0.00,,,0.00,,2013-09-26 19:35:00,
2013-09-26 14:40:00,89.9,-99.9,-100.00,West,265,0.0,1.0,0,0.00,,,0.00,,2013-09-26 19:40:00,
2013-09-26 14:45:00,89.3,-99.9,-100.00,West,265,0.0,1.0,0,0.00,,,0.00,,2013-09-26 19:45:00,
2013-09-26 14:50:00,89.5,-99.9,-100.00,West,271,0.0,1.0,0,0.00,,,0.00,,2013-09-26 19:50:00,
2013-09-26 14:55:00,89.0,-99.9,-100.00,West,265,0.0,1.0,0,0.00,,,0.00,,2013-09-26 19:55:00,
2013-09-26 15:00:00,87.9,-99.9,-100.00,West,265,0.0,1.0,0,0.00,,,0.00,,2013-09-26 20:00:00,
2013-09-26 15:05:00,87.8,-99.9,-100.00,WSW,257,0.0,1.0,0,0.00,,,0.00,,2013-09-26 20:05:00,
2013-09-26 15:10:00,89.3,-99.9,-100.00,West,265,0.0,1.0,0,0.00,,,0.00,,2013-09-26 20:10:00,
2013-09-26 15:15:00,91.6,-99.9,-100.00,WNW,285,0.0,1.0,0,0.00,,,0.00,,2013-09-26 20:15:00,
2013-09-26 15:20:00,89.2,-99.9,-100.00,West,268,0.0,1.0,0,0.00,,,0.00,,2013-09-26 20:20:00,
2013-09-26 15:25:00,89.0,-99.9,-100.00,West,265,0.0,1.0,0,0.00,,,0.00,,2013-09-26 20:25:00,
2013-09-26 15:30:00,89.0,-99.9,-100.00,West,265,0.0,1.0,0,0.00,,,0.00,,2013-09-26 20:30:00,
2013-09-26 15:35:00,89.4,-99.9,-100.00,West,265,0.0,1.0,0,0.00,,,0.00,,2013-09-26 20:35:00,
2013-09-26 15:40:00,89.1,-99.9,-100.00,West,262,0.0,1.0,0,0.00,,,0.00,,2013-09-26 20:40:00,
2013-09-26 15:45:00,89.1,-99.9,-100.00,West,265,0.0,1.0,0,0.00,,,0.00,,2013-09-26 20:45:00,
2013-09-26 15:50:00,89.2,-99.9,-100.00,WSW,257,0.0,1.0,0,0.00,,,0.00,,2013-09-26 20:50:00,
2013-09-26 15:55:00,89.0,-99.9,-100.00,West,265,0.0,1.0,0,0.00,,,0.00,,2013-09-26 20:55:00,
2013-09-26 16:00:00,89.7,-99.9,-100.00,West,265,0.0,1.0,0,0.00,,,0.00,,2013-09-26 21:00:00,
2013-09-26 16:05:00,91.2,-99.9,-100.00,SW,220,0.0,1.0,0,0.00,,,0.00,,2013-09-26 21:05:00,
2013-09-26 16:10:00,89.9,-99.9,-100.00,SW,220,0.0,1.0,0,0.00,,,0.00,,2013-09-26 21:10:00,
2013-09-26 16:15:00,89.8,-99.9,-100.00,SW,220,0.0,0.0,0,0.00,,,0.00,,2013-09-26 21:15:00,
2013-09-26 16:20:00,89.5,-99.9,-100.00,SW,220,0.0,0.0,0,0.00,,,0.00,,2013-09-26 21:20:00,
2013-09-26 16:25:00,89.2,-99.9,-100.00,SW,220,0.0,0.0,0,0.00,,,0.00,,2013-09-26 21:25:00,
2013-09-26 16:30:00,89.2,-99.9,-100.00,SW,220,0.0,0.0,0,0.00,,,0.00,,2013-09-26 21:30:00,
2013-09-26 16:35:00,89.5,-99.9,-100.00,SW,220,0.0,0.0,0,0.00,,,0.00,,2013-09-26 21:35:00,
2013-09-26 16:40:00,89.4,-99.9,-100.00,SW,220,0.0,0.0,0,0.00,,,0.00,,2013-09-26 21:40:00,
2013-09-26 16:45:00,89.1,-99.9,-100.00,SW,220,0.0,0.0,0,0.00,,,0.00,,2013-09-26 21:45:00,
2013-09-26 16:50:00,89.2,-99.9,-100.00,SW,220,0.0,0.0,0,0.00,,,0.00,,2013-09-26 21:50:00,
2013-09-26 17:00:00,89.1,-99.9,-100.00,SW,220,0.0,0.0,0,0.00,,,0.00,,2013-09-26 22:00:00,
2013-09-26 17:10:00,87.9,-99.9,-100.00,SW,220,0.0,0.0,0,0.00,,,0.00,,2013-09-26 22:10:00,
2013-09-26 17:15:00,87.8,-99.9,-100.00,SW,220,0.0,0.0,0,0.00,,,0.00,,2013-09-26 22:15:00,
2013-09-26 17:20:00,87.6,-99.9,-100.00,SW,220,0.0,0.0,0,0.00,,,0.00,,2013-09-26 22:20:00,
2013-09-26 17:25:00,89.0,-99.9,-100.00,SW,220,0.0,0.0,0,0.00,,,0.00,,2013-09-26 22:25:00,
2013-09-26 17:30:00,87.8,-99.9,-100.00,SW,220,0.0,0.0,0,0.00,,,0.00,,2013-09-26 22:30:00,
2013-09-26 17:35:00,89.0,-99.9,-100.00,SW,220,0.0,0.0,0,0.00,,,0.00,,2013-09-26 22:35:00,
2013-09-26 17:40:00,89.0,-99.9,-100.00,SW,220,0.0,0.0,0,0.00,,,0.00,,2013-09-26 22:40:00,
2013-09-26 17:45:00,89.1,-99.9,-100.00,SW,220,0.0,0.0,0,0.00,,,0.00,,2013-09-26 22:45:00,
2013-09-26 17:50:00,87.8,-99.9,-100.00,SW,220,0.0,0.0,0,0.00,,,0.00,,2013-09-26 22:50:00,
2013-09-26 17:55:00,87.6,-99.9,-100.00,SW,220,0.0,0.0,0,0.00,,,0.00,,2013-09-26 22:55:00,
2013-09-26 18:00:00,87.3,-99.9,-100.00,SW,220,0.0,0.0,0,0.00,,,0.00,,2013-09-26 23:00:00,
2013-09-26 18:05:00,87.1,-24.0,-100.00,SW,220,0.0,0.0,1,0.00,,,0.00,,2013-09-26 23:05:00,
2013-09-26 18:10:00,87.1,-24.0,-100.00,SW,220,0.0,0.0,1,0.00,,,0.00,,2013-09-26 23:10:00,
2013-09-26 18:15:00,87.3,-24.0,-100.00,SW,220,0.0,0.0,1,0.00,,,0.00,,2013-09-26 23:15:00,
2013-09-26 18:20:00,87.1,-24.0,-100.00,SW,220,0.0,0.0,1,0.00,,,0.00,,2013-09-26 23:20:00,
2013-09-26 18:25:00,87.0,-24.0,-100.00,SW,220,0.0,0.0,1,0.00,,,0.00,,2013-09-26 23:25:00,
2013-09-26 18:30:00,85.6,-25.0,-100.00,SW,220,0.0,0.0,1,0.00,,,0.00,,2013-09-26 23:30:00,
2013-09-26 18:35:00,85.5,-12.0,-100.00,SW,220,0.0,0.0,2,0.00,,,0.00,,2013-09-26 23:35:00,
2013-09-26 18:40:00,85.2,-12.0,-100.00,SW,220,0.0,0.0,2,0.00,,,0.00,,2013-09-26 23:40:00,
2013-09-26 18:45:00,85.0,-12.0,-100.00,West,265,0.0,1.0,2,0.00,,,0.00,,2013-09-26 23:45:00,
2013-09-26 18:50:00,84.8,-12.0,-100.00,West,265,0.0,1.0,2,0.00,,,0.00,,2013-09-26 23:50:00,
2013-09-26 18:55:00,84.6,-4.0,-100.00,West,265,0.0,0.0,3,0.00,,,0.00,,2013-09-26 23:55:00,
2013-09-26 19:00:00,84.4,-4.0,-100.00,West,265,0.0,1.0,3,0.00,,,0.00,,2013-09-27 00:00:00,
2013-09-26 19:05:00,84.1,-4.0,-100.00,West,265,0.0,1.0,3,0.00,,,0.00,,2013-09-27 00:05:00,
2013-09-26 19:10:00,82.7,-5.0,-100.00,West,265,0.0,1.0,3,0.00,,,0.00,,2013-09-27 00:10:00,
2013-09-26 19:15:00,82.3,0.0,-100.00,West,265,0.0,1.0,4,0.00,,,0.00,,2013-09-27 00:15:00,
2013-09-26 19:20:00,82.0,0.0,-100.00,West,265,0.0,0.0,4,0.00,,,0.00,,2013-09-27 00:20:00,
2013-09-26 19:25:00,80.7,-1.0,-100.00,West,265,0.0,0.0,4,0.00,,,0.00,,2013-09-27 00:25:00,
2013-09-26 19:30:00,80.3,3.0,-100.00,West,265,0.0,0.0,5,0.00,,,0.00,,2013-09-27 00:30:00,
2013-09-26 19:35:00,80.0,3.0,-100.00,West,265,0.0,0.0,5,0.00,,,0.00,,2013-09-27 00:35:00,
2013-09-26 19:40:00,78.7,2.0,-100.00,West,265,0.0,0.0,5,0.00,,,0.00,,2013-09-27 00:40:00,
2013-09-26 19:45:00,78.5,5.0,-100.00,West,265,0.0,0.0,6,0.00,,,0.00,,2013-09-27 00:45:00,
2013-09-26 19:50:00,78.1,5.0,-100.00,West,265,0.0,0.0,6,0.00,,,0.00,,2013-09-27 00:50:00,
2013-09-26 19:55:00,76.9,4.0,-100.00,West,265,0.0,0.0,6,0.00,,,0.00,,2013-09-27 00:55:00,
2013-09-26 20:05:00,76.5,7.0,-100.00,West,265,0.0,0.0,7,0.00,,,0.00,,2013-09-27 01:05:00,
2013-09-26 20:10:00,76.1,10.0,-100.00,West,265,0.0,0.0,8,0.00,,,0.00,,2013-09-27 01:10:00,
2013-09-26 20:15:00,76.0,10.0,-100.00,West,265,0.0,0.0,8,0.00,,,0.00,,2013-09-27 01:15:00,
2013-09-26 20:20:00,75.9,10.0,-100.00,West,265,0.0,0.0,8,0.00,,,0.00,,2013-09-27 01:20:00,
2013-09-26 20:25:00,75.7,10.0,-100.00,West,265,0.0,0.0,8,0.00,,,0.00,,2013-09-27 01:25:00,
2013-09-26 20:30:00,75.5,12.0,-100.00,West,265,0.0,0.0,9,0.00,,,0.00,,2013-09-27 01:30:00,
2013-09-26 20:35:00,75.3,12.0,-100.00,West,265,0.0,0.0,9,0.00,,,0.00,,2013-09-27 01:35:00,
2013-09-26 20:40:00,73.7,11.0,-100.00,West,265,0.0,0.0,9,0.00,,,0.00,,2013-09-27 01:40:00,
2013-09-26 20:45:00,73.6,11.0,-100.00,West,265,0.0,0.0,9,0.00,,,0.00,,2013-09-27 01:45:00,
2013-09-26 20:55:00,73.4,13.0,-100.00,West,265,0.0,0.0,10,0.00,,,0.00,,2013-09-27 01:55:00,
2013-09-26 21:00:00,73.3,15.0,-100.00,West,265,0.0,0.0,11,0.00,,,0.00,,2013-09-27 02:00:00,
2013-09-26 21:05:00,73.1,15.0,-100.00,West,265,0.0,0.0,11,0.00,,,0.00,,2013-09-27 02:05:00,
2013-09-26 21:10:00,73.0,17.0,-100.00,West,265,0.0,0.0,12,0.00,,,0.00,,2013-09-27 02:10:00,
2013-09-26 21:15:00,71.6,16.0,-100.00,West,265,0.0,0.0,12,0.00,,,0.00,,2013-09-27 02:15:00,
2013-09-26 21:20:00,71.6,16.0,-100.00,West,265,0.0,0.0,12,0.00,,,0.00,,2013-09-27 02:20:00,
2013-09-26 21:25:00,71.5,16.0,-100.00,West,265,0.0,0.0,12,0.00,,,0.00,,2013-09-27 02:25:00,
2013-09-26 21:30:00,71.6,18.0,-100.00,West,265,0.0,0.0,13,0.00,,,0.00,,2013-09-27 02:30:00,
2013-09-26 21:35:00,71.5,18.0,-100.00,West,265,0.0,0.0,13,0.00,,,0.00,,2013-09-27 02:35:00,
2013-09-26 21:40:00,71.3,17.0,-100.00,West,265,0.0,0.0,13,0.00,,,0.00,,2013-09-27 02:40:00,
2013-09-26 21:50:00,71.0,19.0,-100.00,West,265,0.0,0.0,14,0.00,,,0.00,,2013-09-27 02:50:00,
2013-09-26 22:00:00,69.6,18.0,-100.00,West,265,0.0,0.0,14,0.00,,,0.00,,2013-09-27 03:00:00,
2013-09-26 22:05:00,69.8,18.0,-100.00,West,265,0.0,0.0,14,0.00,,,0.00,,2013-09-27 03:05:00,
2013-09-26 22:10:00,71.0,21.0,-100.00,West,265,0.0,0.0,15,0.00,,,0.00,,2013-09-27 03:10:00,
2013-09-26 22:15:00,69.8,20.0,-100.00,West,265,0.0,0.0,15,0.00,,,0.00,,2013-09-27 03:15:00,
2013-09-26 22:20:00,69.6,19.0,-100.00,West,265,0.0,0.0,15,0.00,,,0.00,,2013-09-27 03:20:00,
2013-09-26 22:25:00,69.6,19.0,-100.00,West,265,0.0,0.0,15,0.00,,,0.00,,2013-09-27 03:25:00,
2013-09-26 22:30:00,69.6,21.0,-100.00,West,265,0.0,0.0,16,0.00,,,0.00,,2013-09-27 03:30:00,
2013-09-26 22:35:00,69.5,21.0,-100.00,West,265,0.0,0.0,16,0.00,,,0.00,,2013-09-27 03:35:00,
2013-09-26 22:40:00,69.6,21.0,-100.00,West,265,0.0,0.0,16,0.00,,,0.00,,2013-09-27 03:40:00,
2013-09-26 22:45:00,69.6,21.0,-100.00,West,265,0.0,0.0,16,0.00,,,0.00,,2013-09-27 03:45:00,
2013-09-26 22:50:00,69.6,22.0,-100.00,West,265,0.0,0.0,17,0.00,,,0.00,,2013-09-27 03:50:00,
2013-09-26 22:55:00,69.5,22.0,-100.00,West,265,0.0,0.0,17,0.00,,,0.00,,2013-09-27 03:55:00,
2013-09-26 23:00:00,69.5,22.0,-100.00,West,265,0.0,0.0,17,0.00,,,0.00,,2013-09-27 04:00:00,
2013-09-26 23:05:00,69.6,22.0,-100.00,West,265,0.0,0.0,17,0.00,,,0.00,,2013-09-27 04:05:00,
2013-09-26 23:10:00,69.6,22.0,-100.00,West,265,0.0,0.0,17,0.00,,,0.00,,2013-09-27 04:10:00,
2013-09-26 23:15:00,69.3,23.0,-100.00,West,265,0.0,0.0,18,0.00,,,0.00,,2013-09-27 04:15:00,
2013-09-26 23:20:00,69.5,24.0,-100.00,West,265,0.0,0.0,18,0.00,,,0.00,,2013-09-27 04:20:00,
2013-09-26 23:25:00,69.4,24.0,-100.00,West,265,0.0,0.0,18,0.00,,,0.00,,2013-09-27 04:25:00,
2013-09-26 23:30:00,69.4,24.0,-100.00,West,265,0.0,0.0,18,0.00,,,0.00,,2013-09-27 04:30:00,
2013-09-26 23:35:00,69.3,23.0,-100.00,West,265,0.0,0.0,18,0.00,,,0.00,,2013-09-27 04:35:00,
2013-09-26 23:40:00,69.5,24.0,-100.00,West,265,0.0,0.0,18,0.00,,,0.00,,2013-09-27 04:40:00,
2013-09-26 23:45:00,69.2,23.0,-100.00,West,265,0.0,0.0,18,0.00,,,0.00,,2013-09-27 04:45:00,
2013-09-26 23:50:00,69.1,25.0,-100.00,West,265,0.0,0.0,19,0.00,,,0.00,,2013-09-27 04:50:00,
2013-09-26 23:55:00,69.6,25.0,-100.00,West,265,0.0,0.0,19,0.00,,,0.00,,2013-09-27 04:55:00,